Date String (YYYY-MM-DD hh:mm:ss) UTC,Instrument flags,Ambient pressure (hPa),Sample flow (lpm),Bypass flow (lpm),Sample temperature (°C),Ambient temperature (°C),ASC tube jacket temperature (°C),LED temperature (°C),Box temperature (°C),Sample RH (%),Span deviation,Mass concentration (μg/m³),Mass concentration (μg/m³),Mass concentration (μg/m³)
DateTimeUTC,F1_M11,P_M11,Q1_M11,Q2_M11,T1_M11,T2_M11,T3_M11,T4_M11,T5_M11,U1_M11,ZSPAN_M11,X0_M11,X2_M11,X1_M11
2022-06-27 10:00:00,,0834.7,5.00,0.00,29.4,28.1,00.0,38.3,31.2,23.2,0000.0,0007.88,0003.81,0003.35
2022-06-27 10:01:00,,0834.7,5.00,0.00,29.3,28.1,00.0,38.2,31.1,23.3,0000.0,0007.74,0003.82,0003.37
2022-06-27 10:02:00,,0834.7,5.00,0.00,29.3,28.1,00.0,38.2,31.2,23.2,0000.0,0007.56,0003.81,0003.39
2022-06-27 10:03:00,,0834.7,5.01,0.00,29.3,28.1,00.0,38.2,31.2,23.2,0000.0,0006.55,0003.82,0003.40
2022-06-27 10:04:00,,0834.7,5.00,0.00,29.3,28.1,00.0,38.2,31.1,23.2,0000.0,0006.59,0003.83,0003.41
2022-06-27 10:05:00,,0834.7,5.00,0.00,29.3,28.1,00.0,38.2,31.1,23.3,0000.0,0007.21,0003.86,0003.42
2022-06-27 10:06:00,,0834.6,4.99,0.00,29.3,28.1,00.0,38.2,31.1,23.3,0000.0,0007.26,0003.87,0003.43
2022-06-27 10:07:00,,0834.7,5.00,0.00,29.3,28.1,00.0,38.2,31.1,23.3,0000.0,0007.28,0003.89,0003.45
2022-06-27 10:08:00,,0834.7,5.00,0.00,29.3,28.1,00.0,38.2,31.1,23.3,0000.0,0007.25,0003.90,0003.47
2022-06-27 10:09:00,,0834.7,4.99,0.00,29.3,28.1,00.0,38.2,31.1,23.3,0000.0,0007.64,0003.90,0003.49
2022-06-27 10:10:00,,0834.7,5.00,0.00,29.3,28.1,00.0,38.2,31.1,23.3,0000.0,0008.06,0003.97,0003.51
2022-06-27 10:11:00,,0834.7,5.01,0.00,29.3,28.1,00.0,38.2,31.1,23.3,0000.0,0008.44,0003.98,0003.51
2022-06-27 10:12:00,,0834.7,5.00,0.00,29.3,28.1,00.0,38.2,31.1,23.4,0000.0,0008.47,0003.97,0003.51
2022-06-27 10:13:00,,0834.7,4.99,0.00,29.3,28.1,00.0,38.2,31.1,23.4,0000.0,0008.52,0003.98,0003.51
2022-06-27 10:14:00,,0834.7,4.99,0.00,29.3,28.1,00.0,38.2,31.1,23.4,0000.0,0008.37,0003.97,0003.51
2022-06-27 10:15:00,,0834.7,5.00,0.00,29.3,28.1,00.0,38.2,31.1,23.4,0000.0,0008.36,0003.99,0003.52
2022-06-27 10:16:00,,0834.7,5.00,0.00,29.3,28.1,00.0,38.2,31.1,23.3,0000.0,0008.04,0003.99,0003.53
2022-06-27 10:17:00,,0834.7,5.00,0.00,29.3,28.0,00.0,38.2,31.1,23.3,0000.0,0007.99,0003.97,0003.52
2022-06-27 10:18:00,,0834.6,5.00,0.00,29.3,28.0,00.0,38.2,31.1,23.3,0000.0,0008.09,0003.96,0003.52
2022-06-27 10:19:00,,0834.7,5.00,0.00,29.3,28.0,00.0,38.2,31.1,23.3,0000.0,0008.06,0003.93,0003.51
2022-06-27 10:20:00,,0834.6,4.99,0.00,29.3,28.0,00.0,38.2,31.1,23.3,0000.0,0007.58,0003.90,0003.51
2022-06-27 10:21:00,,0834.6,4.99,0.00,29.3,28.0,00.0,38.2,31.1,23.2,0000.0,0007.49,0003.86,0003.50
2022-06-27 10:22:00,,0834.6,4.99,0.00,29.3,28.0,00.0,38.2,31.1,23.2,0000.0,0007.10,0003.87,0003.50
2022-06-27 10:23:00,,0834.6,5.00,0.00,29.3,28.0,00.0,38.1,31.1,23.2,0000.0,0006.84,0003.85,0003.49
2022-06-27 10:24:00,,0834.6,5.00,0.00,29.2,28.0,00.0,38.1,31.0,23.2,0000.0,0006.71,0003.83,0003.49
2022-06-27 10:25:00,,0834.7,5.01,0.00,29.2,28.0,00.0,38.1,31.0,23.2,0000.0,0006.80,0003.84,0003.49
2022-06-27 10:26:00,,0834.7,5.00,0.00,29.2,28.0,00.0,38.1,31.0,23.3,0000.0,0007.27,0003.85,0003.50
2022-06-27 10:27:00,,0834.7,4.99,0.00,29.2,28.0,00.0,38.1,31.0,23.3,0000.0,0007.62,0003.84,0003.50
2022-06-27 10:28:00,,0834.7,5.00,0.00,29.2,28.0,00.0,38.1,31.0,23.3,0000.0,0007.73,0003.85,0003.50
2022-06-27 10:29:00,,0834.7,5.01,0.00,29.2,28.0,00.0,38.1,31.0,23.2,0000.0,0007.51,0003.81,0003.50
2022-06-27 10:30:00,,0834.7,5.00,0.00,29.2,28.0,00.0,38.1,31.0,23.2,0000.0,0007.45,0003.81,0003.50
2022-06-27 10:31:00,,0834.7,5.00,0.00,29.2,28.0,00.0,38.1,31.0,23.1,0000.0,0007.49,0003.81,0003.49
2022-06-27 10:32:00,,0834.7,4.99,0.00,29.2,28.0,00.0,38.1,31.0,23.2,0000.0,0007.34,0003.82,0003.48
2022-06-27 10:33:00,,0834.7,5.00,0.00,29.2,28.0,00.0,38.1,31.0,23.2,0000.0,0007.52,0003.82,0003.47
2022-06-27 10:34:00,,0834.7,5.01,0.00,29.2,28.0,00.0,38.1,31.1,23.2,0000.0,0007.59,0003.82,0003.46
2022-06-27 10:35:00,,0834.7,4.99,0.00,29.2,28.0,00.0,38.1,31.0,23.1,0000.0,0008.23,0003.80,0003.45
2022-06-27 10:36:00,,0834.7,4.99,0.00,29.2,28.0,00.0,38.1,31.0,23.0,0000.0,0008.32,0003.80,0003.44
2022-06-27 10:37:00,,0834.7,5.00,0.00,29.2,28.0,00.0,38.1,31.0,22.9,0000.0,0008.54,0003.77,0003.40
2022-06-27 10:38:00,,0834.7,5.00,0.00,29.2,28.0,00.0,38.1,31.0,22.9,0000.0,0008.59,0003.77,0003.37
2022-06-27 10:39:00,,0834.7,5.00,0.00,29.2,28.0,00.0,38.1,31.0,23.0,0000.0,0008.68,0003.77,0003.35
2022-06-27 10:40:00,,0834.7,5.00,0.00,29.2,28.0,00.0,38.1,31.0,23.1,0000.0,0008.69,0003.75,0003.33
2022-06-27 10:41:00,,0834.7,4.99,0.00,29.2,28.0,00.0,38.1,31.1,23.1,0000.0,0008.73,0003.73,0003.32
2022-06-27 10:42:00,,0834.7,5.00,0.00,29.2,28.0,00.0,38.1,31.1,23.1,0000.0,0008.75,0003.73,0003.32
2022-06-27 10:43:00,,0834.7,5.01,0.00,29.2,28.1,00.0,38.1,31.1,23.1,0000.0,0008.74,0003.73,0003.31
2022-06-27 10:44:00,,0834.7,5.01,0.00,29.2,28.1,00.0,38.1,31.1,23.1,0000.0,0008.40,0003.69,0003.31
2022-06-27 10:45:00,,0834.6,4.99,0.00,29.2,28.1,00.0,38.1,31.1,23.0,0000.0,0008.30,0003.69,0003.30
2022-06-27 10:46:00,,0834.6,5.00,0.00,29.2,28.1,00.0,38.1,31.1,23.0,0000.0,0007.60,0003.67,0003.30
2022-06-27 10:47:00,,0834.7,5.01,0.00,29.3,28.1,00.0,38.1,31.1,23.1,0000.0,0007.54,0003.68,0003.30
2022-06-27 10:48:00,,0834.7,5.00,0.00,29.3,28.1,00.0,38.1,31.1,23.2,0000.0,0006.81,0003.68,0003.32
2022-06-27 10:49:00,,0834.7,4.99,0.00,29.3,28.2,00.0,38.1,31.1,23.3,0000.0,0006.13,0003.66,0003.33
2022-06-27 10:50:00,,0834.7,5.00,0.00,29.3,28.2,00.0,38.1,31.1,23.3,0000.0,0006.21,0003.68,0003.35
2022-06-27 10:51:00,,0834.7,5.01,0.00,29.3,28.2,00.0,38.1,31.1,23.3,0000.0,0007.58,0003.72,0003.37
2022-06-27 10:52:00,,0834.7,4.99,0.00,29.3,28.2,00.0,38.1,31.1,23.6,0000.0,0007.57,0003.76,0003.40
2022-06-27 10:53:00,,0834.7,5.00,0.00,29.3,28.2,00.0,38.1,31.1,23.8,0000.0,0007.56,0003.81,0003.44
2022-06-27 10:54:00,,0834.7,5.01,0.00,29.3,28.2,00.0,38.1,31.2,23.8,0000.0,0007.61,0003.82,0003.48
2022-06-27 10:55:00,,0834.8,5.00,0.00,29.3,28.2,00.0,38.1,31.2,23.8,0000.0,0007.96,0003.86,0003.52
2022-06-27 10:56:00,,0834.8,5.00,0.00,29.3,28.2,00.0,38.1,31.2,23.8,0000.0,0008.39,0003.91,0003.56
2022-06-27 10:57:00,,0834.9,5.00,0.00,29.3,28.2,00.0,38.1,31.2,23.7,0000.0,0008.57,0003.99,0003.60
2022-06-27 10:58:00,,0834.9,5.01,0.00,29.3,28.2,00.0,38.1,31.2,23.7,0000.0,0008.74,0004.05,0003.63
2022-06-27 10:59:00,,0834.9,4.99,0.00,29.3,28.2,00.0,38.2,31.2,23.6,0000.0,0008.83,0004.08,0003.65
